Lid_Strength_Index
1 1 1 1 1 2 2 2 1 2 2 2 1 1 1 2 3 3 2 -1 -1 -2 -2 -2 -2 -2 -1 -0 -0 -0 -0 -0 -0 -0 0 1 1 1 0 -0 0 1 1
1 1 1 1 1 2 2 2 2 2 2 2 2 1 1 2 3 2 2 1 -0 -1 -2 -2 -2 -1 -1 -0 0 0 0 0 0 1 1 1 1 1 1 0 1 1 2
0 1 0 1 1 1 2 2 3 3 3 2 2 2 1 1 3 3 2 2 1 0 -1 -1 -1 -1 -1 -0 0 1 1 1 1 1 2 1 1 1 1 1 2 1 2
1 1 1 1 0 1 1 2 2 3 3 3 3 2 2 2 3 3 2 2 2 2 1 0 -1 -1 -0 0 0 0 1 1 1 2 2 2 2 2 2 2 2 2 2
1 1 1 1 2 1 1 1 2 2 3 3 2 2 2 3 3 3 3 3 3 2 2 1 1 0 0 -0 0 0 0 1 1 2 2 2 2 3 3 2 2 2 2
1 1 2 1 2 2 2 2 3 2 2 2 2 2 3 2 3 4 4 3 4 3 3 3 2 2 1 1 0 0 0 0 1 1 2 2 2 3 3 3 3 3 3
1 2 2 2 2 3 2 2 2 2 2 3 4 4 5 4 4 3 4 3 4 4 4 4 3 3 2 1 1 1 1 1 1 2 2 3 2 3 4 3 3 3 3
1 1 1 2 3 3 2 2 2 2 3 3 4 4 5 5 6 4 4 4 4 4 4 4 4 3 3 3 3 1 1 1 1 1 2 3 3 3 4 3 3 4 3
1 1 1 1 1 1 1 2 1 2 3 2 3 3 7 7 6 6 5 4 4 5 5 5 4 4 4 4 3 3 3 2 1 2 2 2 3 3 3 4 4 3 3
3 3 2 1 2 2 3 2 0 1 1 3 2 2 2 4 6 7 5 5 4 4 4 4 4 4 4 4 3 4 4 4 3 1 2 3 3 3 3 4 4 4 4
4 3 3 2 2 2 3 2 2 2 1 3 2 2 2 2 3 5 6 6 5 4 3 3 3 3 3 3 4 4 5 5 5 3 2 3 3 4 4 4 4 4 4
4 3 3 3 3 3 3 3 3 2 2 3 3 3 3 4 4 4 6 5 4 4 4 3 3 3 3 3 3 3 5 5 5 3 2 2 3 3 3 3 3 3 4
5 5 4 4 4 3 3 2 3 3 3 4 4 3 3 3 2 3 4 4 6 5 5 3 3 3 2 3 3 4 4 5 5 4 3 3 3 3 4 3 4 4 4
5 6 6 5 5 4 4 3 4 4 3 3 4 5 4 4 4 4 5 5 6 6 5 4 3 3 2 2 3 5 4 5 6 5 3 3 4 4 4 4 4 4 5
5 6 6 6 6 5 4 4 5 5 4 3 3 4 3 3 3 4 4 5 6 8 7 5 5 3 2 3 3 3 3 4 5 6 5 5 5 4 5 5 5 5 5
6 7 6 7 6 5 5 5 5 4 4 4 3 3 3 3 3 4 5 4 4 5 7 5 4 3 2 2 3 3 3 4 6 6 6 6 5 5 5 5 6 6 6
6 6 6 6 5 4 3 3 3 2 1 3 3 3 3 3 2 3 3 3 4 4 5 5 3 3 3 3 2 3 2 3 4 6 6 6 6 6 6 7 7 7 7
6 5 4 3 2 2 1 3 3 2 2 2 3 3 3 2 3 3 3 3 3 3 4 6 4 3 2 2 2 3 3 3 3 5 5 5 6 6 7 8 8 8 9
7 5 3 3 3 2 1 2 2 3 3 3 2 3 2 3 3 3 3 3 3 3 3 4 4 3 3 2 4 3 3 3 4 4 6 6 6 6 7 8 9 9 10
5 3 3 3 2 2 2 2 1 3 3 3 2 2 2 3 3 3 3 3 3 4 3 4 4 4 4 5 4 5 6 6 5 5 5 6 7 7 8 9 9 10 10
3 3 3 3 3 3 3 3 3 4 3 4 4 3 3 3 3 4 4 4 4 5 5 5 6 5 4 6 5 5 6 7 7 6 7 7 8 9 9 10 9 10 11
3 3 3 3 3 2 3 4 4 3 3 5 5 4 3 2 3 4 5 6 5 6 6 6 7 7 7 6 5 6 8 10 11 9 9 10 9 10 10 11 10 11 11
4 4 3 3 3 2 3 3 4 5 6 6 5 5 4 3 4 5 5 6 7 7 8 7 7 8 8 7 7 7 9 9 9 11 10 13 12 13 12 10 10 11 12
5 4 3 4 4 3 3 4 4 5 6 6 6 5 4 4 4 5 6 7 8 7 7 8 8 7 7 8 8 8 10 10 11 11 11 15 12 14 12 12 10 11 11
5 4 4 4 5 5 5 5 5 5 5 5 5 5 4 4 4 4 7 8 8 8 8 7 8 8 8 8 8 10 12 12 13 13 13 14 14 14 13 13 11 10 11
5 4 5 5 5 5 5 4 4 5 6 5 5 5 5 5 5 6 6 7 8 9 10 10 11 11 9 9 9 9 10 12 13 14 13 14 14 13 15 12 12 12 12